Regional Weather Roundup
Issued by NWS Newport/Morehead, NC

Current Version | Previous Version | Graphics & Text | Print | Product List | Glossary Off
Versions: 1 2 3 4 5 6 7 8 9 10 11 12 13 14 15 16 17 18 19 20 21 22 23 24 25 26 27 28 29 30 31 32 33 34 35 36 37 38 39 40 41 42 43 44 45 46 47 48 49 50

000
ASUS42 KMHX 251614
RWRMHX
WEATHER ROUNDUP FOR EASTERN NORTH CAROLINA
NATIONAL WEATHER SERVICE NEWPORT/MOREHEAD CITY NC
1200 PM EDT WED APR 25 2018

NOTE: "FAIR" INDICATES FEW OR NO CLOUDS BELOW 12,000 FEET
WITH NO SIGNIFICANT WEATHER AND/OR OBSTRUCTIONS TO VISIBILITY

NCZ015>017-031-032-045>047-102-103-251700-
NORTH COAST

CITY           SKY/WX    TMP DP  RH WIND       PRES   REMARKS
EDENTON        NOT AVBL
ELIZABETH CITY FAIR      73  65  75 SW9       29.73S
KITTY HAWK     FAIR      72  56  58 MISG      29.72F
MANTEO         FAIR      71  58  62 SW17      29.73F

$$

NCZ045>047-081-094-103-104-251700-
CENTRAL COAST

CITY           SKY/WX    TMP DP  RH WIND       PRES   REMARKS
FRISCO         FAIR      72  62  71 SW13G18   29.75F

$$

NCZ095-097-098-100-101-251700-
SOUTHERN COAST

CITY           SKY/WX    TMP DP  RH WIND       PRES   REMARKS
BEAUFORT       FAIR      67  61  81 SW14      29.76S
CEDAR ISLAND   NOT AVBL
JACKSONVILLE   PTSUNNY   74  59  59 SW14G22   29.73F
PINEY ISLAND   NOT AVBL
WILMINGTON     FAIR      74  57  55 W16       29.76F


$$

NCZ011>013-027>030-043-044-078>080-089-090>093-098-251700-
COASTAL PLAIN

CITY           SKY/WX    TMP DP  RH WIND       PRES   REMARKS
AHOSKIE        CLOUDY    65  63  92 CALM      29.73S
CLINTON        PTSUNNY   69  60  71 W8        29.75F
ELIZABETHTOWN  CLOUDY    73  57  57 MISG      29.76F
GOLDSBORO      CLOUDY    66  59  77 SW9       29.72F
GREENVILLE     FAIR      72  59  64 SW14      29.75F
HAVELOCK       MOSUNNY   75  61  61 SW16G23   29.75F
KENANSVILLE    PTSUNNY   70  59  68 SW10G18   29.75F
KINSTON        PTSUNNY   72  59  64 SW12G17   29.73F
NEW BERN       FAIR      73  60  63 SW9G22    29.74F
RICHLANDS      PTSUNNY   73  59  61 SW14G20   29.75S
ROCKY MOUNT    CLOUDY    65  59  81 S8        29.73F
WASHINGTON     CLOUDY    72  60  64 CALM      29.72F
WHITEVILLE     PTSUNNY   72  56  58 W5        29.77F

$$

AMZ130-135-150-152-154-156-158-170-250-252-270-ANZ085-086-088-633-658-670-251700-
MARINE OBSERVATIONS

STATION/POSITION TIME  TEMP    WIND        PRES    WAVE   SWELL
                       AIR SEA DIR/SP/G            HT/PER HT/PER
                 (UTC) (F)     (DEG/KT/KT) (MB)    (FT/S) (FT/S)
CHESAPEAKE LIGHT NOT AVBL
64 E VA BEACH    1550   56 50  170/ 10/ 12 1008.0   12/11  11/11
DUCK             1542   69 51  210/  8/ 11 1006.1
2 E DUCK         1600      55                N/A     7/11   5/11
OREGON INLET     1542   64 54  180/  9/ 11 1007.2
13E OREGON INLT  1548      54                N/A     9/11   8/11
HATTERAS CG      1542   69 64  210/ 10/ 15 1007.3
DIAMOND BUOY     1600   69 70  240/ 14/ 17 1007.8
CAPE LOOKOUT     1600          230/ 11/ 14 1008.3
BEAUFORT LAB     1542   65 63  200/  9/ 13 1008.1
30 SE NEW RVR IN 1508   66 67  220/ 10/ 16 1006.0
30 SE NEW RVR IN 1600      67                N/A     7/10   3/11
27 SE WRIGHTSVLE 1508   65 66  230/ 14/ 21 1008.9
5 SE WRIGHTSVLE  1508   64 63  220/ 10/ 14 1007.2
225 S CAPE HAT   1600   73 73  190/ 17/ 21 1010.2
41 SE CHARLESTON 1550      69  230/ 14/ 17 1010.5    6/ 9   5/ 9

$$



USA.gov is the U.S. government's official web portal to all federal, state and local government web resources and services.